Location: B?lite?ti
(46.2833°N, 22.7333°E)
Time: 17:11:15
(UTC+00:00)

Cosmos 372 Rocket - Pass Details

Date: 24 January 2021
Orbit: 738 x 768 km, 74.1° (Epoch: 01 March)

Event Time Altitude Azimuth Distance (km) Brightness Sun altitude
Rises 17:51:54 0° 197° (SSW) 3,193 7.4 -25.7°
Reaches altitude 10° 17:54:14 10° 196° (SSW) 2,278 6.6 -26.1°
Enters shadow 17:58:34 63° 183° (S) 850 4.1 -26.9°
